Tracking 19795 objects as of 18-Jul-2019
HD Live streaming from Space Station
objects crossing your sky now

CZ-4 DEB


CZ-4 DEB is no longer on orbit


NORAD ID: 26172
Int'l Code: 1999-057BJ
Perigee: N/A
Apogee: N/A
Inclination: N/A
Period: N/A
Semi major axis: N/A
RCS: N/A
Launch date: October 14, 1999
Source: People's Republic of China (PRC)
Launch site: Taiyaun Space Center, China (TSC)
Decay date: 2018-01-10

Note: This is SATELLITE DEBRIS
aabbcc
Your satellite tracking list
Your tracking list is empty




NASA's NSSDC Master Catalog

Two Line Element Set (TLE):
1 26172U 99057BJ  18010.26369851  .09425519  34152-5  37264-3 0  9998
2 26172  98.5815 309.4793 0007756 214.3089 145.7708 16.43322472982985
Source of the keplerian elements: AFSPC